LVLRG KIDA-KWYS

Flight info

Callsign LVLRG
Flight time 0h 22m
Altitude 9000
Route V365 SABAT
Aircraft B350/L-SDF/C

Departure

Time 2026-04-23 00:47
Airport Idaho Falls Regional Airport (KIDA)

Arrival

Time 2026-04-23 01:09
Airport Yellowstone Airport (KWYS)
Time Latitude Longitude Altitude Speed Heading
2026-04-23 00:30 43.51795 -112.06039 4737 ft 0 kts 270°
2026-04-23 00:43 43.51795 -112.06041 4737 ft 1 kts 282°
2026-04-23 00:43 43.51865 -112.06071 4737 ft 19 kts 355°
2026-04-23 00:43 43.52002 -112.06071 4737 ft 12 kts
2026-04-23 00:44 43.52077 -112.06099 4737 ft 5 kts 264°
2026-04-23 00:44 43.52074 -112.06130 4737 ft 12 kts 258°
2026-04-23 00:44 43.52087 -112.06255 4736 ft 14 kts 307°
2026-04-23 00:44 43.52106 -112.06292 4736 ft 0 kts 306°
2026-04-23 00:45 43.52107 -112.06293 4736 ft 2 kts 306°
2026-04-23 00:45 43.52136 -112.06342 4736 ft 0 kts 307°
2026-04-23 00:46 43.52137 -112.06344 4736 ft 1 kts 308°
2026-04-23 00:46 43.52160 -112.06384 4736 ft 10 kts 308°
2026-04-23 00:46 43.52151 -112.06481 4737 ft 24 kts 226°
2026-04-23 00:47 43.51833 -112.06830 4736 ft 86 kts 218°
2026-04-23 00:47 43.51283 -112.07421 4951 ft 111 kts 219°
2026-04-23 00:47 43.50656 -112.08130 5409 ft 126 kts 220°
2026-04-23 00:47 43.49934 -112.08984 5848 ft 142 kts 223°
2026-04-23 00:48 43.49142 -112.09908 6207 ft 156 kts 224°
2026-04-23 00:48 43.48301 -112.10886 6679 ft 159 kts 225°
2026-04-23 00:48 43.47480 -112.11862 7307 ft 154 kts 224°
2026-04-23 00:48 43.46611 -112.12776 7772 ft 161 kts 224°
2026-04-23 00:49 43.45609 -112.13591 8132 ft 181 kts 202°
2026-04-23 00:49 43.44282 -112.13461 8572 ft 207 kts 166°
2026-04-23 00:49 43.43152 -112.12115 9096 ft 229 kts 125°
2026-04-23 00:49 43.42820 -112.09970 9666 ft 235 kts 82°
2026-04-23 00:50 43.43400 -112.07955 10210 ft 223 kts 43°
2026-04-23 00:50 43.44592 -112.06864 10764 ft 195 kts
2026-04-23 00:50 43.45897 -112.06475 11118 ft 200 kts 359°
2026-04-23 00:50 43.47348 -112.06189 11077 ft 219 kts 357°
2026-04-23 00:51 43.48916 -112.05971 11072 ft 232 kts 355°
2026-04-23 00:51 43.50559 -112.05780 11063 ft 242 kts 356°
2026-04-23 00:51 43.52253 -112.05394 11065 ft 257 kts 10°
2026-04-23 00:51 43.53953 -112.04469 11084 ft 264 kts 14°
2026-04-23 00:52 43.55662 -112.03396 11022 ft 275 kts 21°
2026-04-23 00:52 43.57334 -112.02070 11005 ft 280 kts 25°
2026-04-23 00:52 43.58992 -112.00651 11025 ft 282 kts 26°
2026-04-23 00:52 43.60680 -111.99193 10968 ft 288 kts 25°
2026-04-23 00:53 43.62415 -111.97818 10980 ft 290 kts 23°
2026-04-23 00:53 43.64191 -111.96450 10982 ft 293 kts 21°
2026-04-23 00:53 43.66005 -111.95153 11018 ft 294 kts 21°
2026-04-23 00:53 43.67834 -111.93870 10998 ft 296 kts 21°
2026-04-23 00:54 43.69659 -111.92512 11007 ft 299 kts 24°
2026-04-23 00:54 43.71473 -111.91104 11030 ft 300 kts 24°
2026-04-23 00:54 43.73273 -111.89730 11050 ft 300 kts 24°
2026-04-23 00:54 43.75087 -111.88281 11042 ft 302 kts 25°
2026-04-23 00:55 43.76946 -111.86791 11066 ft 301 kts 25°
2026-04-23 00:55 43.78737 -111.85424 11068 ft 301 kts 23°
2026-04-23 00:55 43.80588 -111.84065 11063 ft 301 kts 22°
2026-04-23 00:55 43.82450 -111.82731 11035 ft 302 kts 23°
2026-04-23 00:56 43.84287 -111.81298 11004 ft 304 kts 26°
2026-04-23 00:56 43.86098 -111.79788 10983 ft 304 kts 28°
2026-04-23 00:56 43.87861 -111.78170 10975 ft 304 kts 30°
2026-04-23 00:56 43.89600 -111.76503 10976 ft 303 kts 31°
2026-04-23 00:57 43.91327 -111.74829 10973 ft 302 kts 31°
2026-04-23 00:57 43.93043 -111.73150 10972 ft 302 kts 31°
2026-04-23 00:57 43.94755 -111.71472 10971 ft 301 kts 31°
2026-04-23 00:57 43.96463 -111.69796 10969 ft 301 kts 31°
2026-04-23 00:58 43.98172 -111.68121 10966 ft 300 kts 31°
2026-04-23 00:58 43.99879 -111.66447 10967 ft 300 kts 31°
2026-04-23 00:58 44.01602 -111.64805 10964 ft 299 kts 28°
2026-04-23 00:58 44.03364 -111.63283 10962 ft 298 kts 27°
2026-04-23 00:59 44.05140 -111.61798 10961 ft 298 kts 26°
2026-04-23 00:59 44.06929 -111.60359 10961 ft 297 kts 25°
2026-04-23 00:59 44.08746 -111.58986 10965 ft 297 kts 24°
2026-04-23 00:59 44.10574 -111.57635 10965 ft 298 kts 23°
2026-04-23 01:00 44.12409 -111.56292 10964 ft 298 kts 23°
2026-04-23 01:00 44.14224 -111.54971 10957 ft 299 kts 23°
2026-04-23 01:00 44.16066 -111.53634 10959 ft 299 kts 24°
2026-04-23 01:00 44.17857 -111.52071 10965 ft 302 kts 32°
2026-04-23 01:01 44.19525 -111.50343 10970 ft 303 kts 33°
2026-04-23 01:01 44.21234 -111.48627 10965 ft 303 kts 31°
2026-04-23 01:01 44.22973 -111.46956 10968 ft 303 kts 31°
2026-04-23 01:01 44.24713 -111.45306 10978 ft 303 kts 30°
2026-04-23 01:02 44.26463 -111.43656 10975 ft 303 kts 30°
2026-04-23 01:02 44.28212 -111.42010 10979 ft 303 kts 30°
2026-04-23 01:02 44.29957 -111.40366 10975 ft 303 kts 30°
2026-04-23 01:02 44.31704 -111.38718 10979 ft 303 kts 30°
2026-04-23 01:03 44.33450 -111.37063 10972 ft 302 kts 30°
2026-04-23 01:03 44.35182 -111.35421 10966 ft 301 kts 30°
2026-04-23 01:03 44.36913 -111.33774 10995 ft 299 kts 30°
2026-04-23 01:03 44.38640 -111.32128 11019 ft 298 kts 30°
2026-04-23 01:04 44.40349 -111.30541 11027 ft 295 kts 26°
2026-04-23 01:04 44.42175 -111.29273 11044 ft 291 kts 19°
2026-04-23 01:04 44.45901 -111.27210 10993 ft 285 kts 14°
2026-04-23 01:05 44.47727 -111.26132 10906 ft 285 kts 19°
2026-04-23 01:05 44.49495 -111.24957 10779 ft 277 kts 20°
2026-04-23 01:05 44.51207 -111.23769 10565 ft 272 kts 23°
2026-04-23 01:05 44.52848 -111.22537 10384 ft 261 kts 21°
2026-04-23 01:06 44.54439 -111.21426 10084 ft 251 kts 19°
2026-04-23 01:06 44.55974 -111.20415 9873 ft 235 kts 16°
2026-04-23 01:06 44.57448 -111.19549 9555 ft 226 kts 17°
2026-04-23 01:06 44.58837 -111.18560 9166 ft 220 kts 22°
2026-04-23 01:07 44.60120 -111.17591 8670 ft 200 kts 20°
2026-04-23 01:07 44.61330 -111.16814 8257 ft 180 kts 15°
2026-04-23 01:07 44.62399 -111.16138 7884 ft 161 kts 21°
2026-04-23 01:07 44.63414 -111.15484 7478 ft 163 kts 21°
2026-04-23 01:08 44.64426 -111.14831 7311 ft 160 kts 27°
2026-04-23 01:08 44.65398 -111.14114 7171 ft 157 kts 25°
2026-04-23 01:08 44.66375 -111.13456 7033 ft 155 kts 24°
2026-04-23 01:08 44.67338 -111.12795 6828 ft 152 kts 24°
2026-04-23 01:09 44.68275 -111.12158 6662 ft 139 kts 24°
2026-04-23 01:09 44.69053 -111.11629 6648 ft 113 kts 27°
2026-04-23 01:09 44.69535 -111.11288 6642 ft 47 kts 25°
2026-04-23 01:09 44.69806 -111.11086 6637 ft 25 kts 41°
2026-04-23 01:10 44.69803 -111.10944 6638 ft 10 kts 171°
2026-04-23 01:10 44.69801 -111.10944 6638 ft 0 kts 192°